Farmingdale, NY

4:59 PM EST on February 19, 2017 (GMT -0500)
Republic

Weather History for KFRG - November, 2012

Change the Weather History Date:

Wednesday, November 7, 2012

  Actual Average Record
Temperature  
Mean Temperature 36 °F -  
Max Temperature 39 °F 53 °F 69 °F (2015)
Min Temperature 32 °F 38 °F 32 °F (2012)
Degree Days  
Heating Degree Days 30    
Moisture  
Dew Point 31 °F    
Average Humidity 86    
Maximum Humidity 96    
Minimum Humidity 63    
Precipitation  
Precipitation 0.62 in - - ()
Sea Level Pressure  
Sea Level Pressure 29.81 in    
Wind  
Wind Speed 19 mph (NNE)    
Max Wind Speed 29 mph    
Max Gust Speed 44 mph    
Visibility 3 miles    
Events Rain , Snow    
Averages and records for this station are not official NWS values.
T = Trace of Precipitation, MM = Missing Value Source: NWS Daily Summary

Daily Weather History Graph

Daily Weather History Graph

Search for Another Location

Airport or City:

Trip Planner

Search our weather history database for the weather conditions in past years. The results will help you decide how hot, cold, wet, or windy it might be!

Date:

Astronomy

Nov. 07, 2012 Rise Set
Actual Time 6:31 AM EST 4:42 PM EST
Civil Twilight 6:02 AM EST 5:11 PM EST
Nautical Twilight 5:30 AM EST 5:44 PM EST
Astronomical Twilight 4:57 AM EST 6:16 PM EST
Moon No Moon Rise 12:52 PM EST (11/7)
Length of Visible Light 11h 08m
Length of Day
10h 11m
Last Quarter, 43% of the Moon is Illuminated
Nov 7
Last Quarter
Nov 13
New
Nov 20
First Quarter
Nov 28
Full
Dec 6
Last Quarter

Hourly Weather History & Observations

Time (EST) Temp. Windchill Dew Point Humidity Pressure Visibility Wind Dir Wind Speed Gust Speed Precip Events Conditions
12:53 AM 39.9 °F 32.1 °F 30.0 °F 68% 30.05 in 10.0 mi NE 13.8 mph 19.6 mph N/A   Clear
1:53 AM 39.9 °F 32.1 °F 28.0 °F 63% 30.04 in 10.0 mi ENE 13.8 mph 21.9 mph N/A   Clear
2:53 AM 39.9 °F 31.4 °F 30.9 °F 70% 29.98 in 10.0 mi NE 16.1 mph 25.3 mph N/A   Clear
3:53 AM 39.9 °F 32.1 °F 30.9 °F 70% 29.98 in 10.0 mi NNE 13.8 mph - N/A   Scattered Clouds
4:53 AM 39.9 °F 31.1 °F 30.9 °F 70% 29.95 in 10.0 mi NNE 17.3 mph 32.2 mph N/A   Mostly Cloudy
5:53 AM 39.9 °F 31.8 °F 30.0 °F 68% 29.95 in 10.0 mi NE 15.0 mph 23.0 mph N/A   Overcast
6:53 AM 39.9 °F 29.7 °F 30.0 °F 68% 29.92 in 10.0 mi NE 23.0 mph 29.9 mph N/A   Mostly Cloudy
7:53 AM 39.9 °F 30.2 °F 30.0 °F 68% 29.93 in 10.0 mi NE 20.7 mph 33.4 mph N/A   Overcast
8:53 AM 39.0 °F 29.0 °F 30.0 °F 70% 29.90 in 10.0 mi NNE 20.7 mph 27.6 mph N/A   Overcast
9:20 AM 39.2 °F 29.6 °F 28.4 °F 65% 29.88 in 10.0 mi NE 19.6 mph 33.4 mph N/A   Overcast
9:53 AM 37.0 °F 26.2 °F 30.9 °F 79% 29.87 in 5.0 mi NE 21.9 mph 34.5 mph 0.00 in Rain Light Rain
10:11 AM 35.6 °F 25.9 °F 32.0 °F 87% 29.87 in 2.0 mi NE 16.1 mph 36.8 mph 0.04 in Rain Rain
10:30 AM 35.6 °F 24.5 °F 33.8 °F 93% 29.86 in 1.8 mi NNE 20.7 mph 28.8 mph 0.08 in Rain Rain
10:37 AM 35.6 °F 25.2 °F 33.8 °F 93% 29.86 in 2.0 mi NNE 18.4 mph 28.8 mph 0.09 in Rain Rain
10:45 AM 35.6 °F 24.8 °F 33.8 °F 93% 29.85 in 2.5 mi NNE 19.6 mph 28.8 mph 0.10 in Rain Light Rain
10:47 AM 35.6 °F 24.2 °F 33.8 °F 93% 29.85 in 3.0 mi NNE 21.9 mph 28.8 mph 0.10 in Rain Light Rain
10:53 AM 36.0 °F 24.4 °F 33.1 °F 89% 29.84 in 3.0 mi NNE 23.0 mph 34.5 mph 0.11 in Rain Rain
11:53 AM 36.0 °F 24.2 °F 34.0 °F 93% 29.81 in 6.0 mi NNE 24.2 mph 34.5 mph 0.05 in Rain Light Rain
12:53 PM 36.0 °F 25.0 °F 33.1 °F 89% 29.79 in 4.0 mi NNE 20.7 mph 35.7 mph 0.04 in Rain Light Rain
1:08 PM 35.6 °F 23.4 °F 32.0 °F 87% 29.79 in 2.0 mi NNE 25.3 mph 33.4 mph 0.02 in Snow Light Snow
1:15 PM 33.8 °F 22.5 °F 32.0 °F 93% 29.79 in 1.5 mi NNE 19.6 mph 33.4 mph 0.03 in Snow Light Snow
1:35 PM 33.8 °F 22.5 °F 32.0 °F 93% 29.78 in 1.2 mi NNE 19.6 mph 27.6 mph 0.05 in Snow Light Snow
1:53 PM 34.0 °F 22.1 °F 32.0 °F 92% 29.79 in 3.0 mi NNE 21.9 mph 28.8 mph 0.06 in Snow Light Snow
2:02 PM 33.8 °F 22.2 °F 32.0 °F 93% 29.79 in 3.0 mi NNE 20.7 mph 27.6 mph 0.00 in Snow Light Snow
2:17 PM 33.8 °F 22.8 °F 32.0 °F 93% 29.79 in 2.0 mi North 18.4 mph 31.1 mph 0.01 in Snow Light Snow
2:38 PM 33.8 °F 22.2 °F 32.0 °F 93% 29.79 in 1.2 mi NNE 20.7 mph 34.5 mph 0.05 in Snow Light Snow
2:53 PM 34.0 °F 22.4 °F 32.0 °F 92% 29.80 in 1.0 mi North 20.7 mph 31.1 mph 0.07 in Snow Light Snow
3:01 PM 33.8 °F 23.2 °F 32.0 °F 93% 29.79 in 0.8 mi North 17.3 mph 31.1 mph 0.02 in Snow Light Snow
3:16 PM 33.8 °F 21.9 °F 32.0 °F 93% 29.79 in 1.0 mi North 21.9 mph 28.8 mph 0.04 in Snow Light Snow
3:29 PM 33.8 °F 21.6 °F 32.0 °F 93% 29.78 in 0.8 mi North 23.0 mph 34.5 mph 0.07 in Snow Light Snow
3:53 PM 34.0 °F 21.8 °F 32.0 °F 92% 29.77 in 0.8 mi North 23.0 mph 35.7 mph 0.11 in Snow Light Snow
4:01 PM 33.8 °F 21.6 °F 32.0 °F 93% 29.76 in 1.2 mi North 23.0 mph 34.5 mph 0.01 in Snow Light Snow
4:39 PM 33.8 °F 21.0 °F 30.2 °F 87% 29.76 in 0.8 mi North 25.3 mph 36.8 mph 0.04 in Snow Light Snow
4:53 PM 33.1 °F 19.3 °F 30.9 °F 92% 29.76 in 0.8 mi North 28.8 mph 43.7 mph 0.05 in Snow Light Snow
5:24 PM 33.8 °F 22.2 °F 30.2 °F 87% 29.77 in 1.0 mi North 20.7 mph 29.9 mph 0.03 in Snow Light Snow
5:31 PM 33.8 °F 21.9 °F 30.2 °F 87% 29.77 in 0.8 mi North 21.9 mph 32.2 mph 0.04 in Snow Light Snow
5:53 PM 33.1 °F 20.1 °F 30.9 °F 92% 29.77 in 0.8 mi North 25.3 mph 38.0 mph 0.05 in Snow Light Snow
6:53 PM 33.1 °F 20.1 °F 30.9 °F 92% 29.75 in 1.2 mi North 25.3 mph 36.8 mph 0.01 in Snow Light Snow
7:11 PM 33.8 °F 21.0 °F 30.2 °F 87% 29.75 in 0.8 mi North 25.3 mph 39.1 mph 0.01 in Snow Light Snow
7:53 PM 33.1 °F 19.6 °F 30.9 °F 92% 29.75 in 0.8 mi North 27.6 mph 34.5 mph 0.01 in Snow Light Snow
8:25 PM 32.0 °F 18.9 °F 30.2 °F 93% 29.75 in 1.0 mi North 24.2 mph 35.7 mph 0.02 in Snow Light Snow
8:33 PM 32.0 °F 19.2 °F 30.2 °F 93% 29.75 in 0.8 mi North 23.0 mph 38.0 mph 0.03 in Snow Light Snow
8:43 PM 33.8 °F 21.6 °F 30.2 °F 87% 29.74 in 1.2 mi North 23.0 mph 34.5 mph 0.04 in Snow Light Snow
8:50 PM 33.8 °F 20.8 °F 30.2 °F 87% 29.74 in 1.5 mi North 26.5 mph 32.2 mph 0.04 in Snow Light Snow
8:53 PM 33.1 °F 20.6 °F 30.9 °F 92% 29.75 in 1.5 mi North 23.0 mph 32.2 mph 0.04 in Snow Light Snow
9:38 PM 33.8 °F 21.0 °F 30.2 °F 87% 29.74 in 1.5 mi North 25.3 mph 36.8 mph 0.01 in Snow Light Snow
9:53 PM 33.1 °F 20.9 °F 30.9 °F 92% 29.74 in 1.2 mi North 21.9 mph 28.8 mph 0.01 in Snow Light Snow
10:25 PM 33.8 °F 21.6 °F 30.2 °F 87% 29.73 in 2.0 mi North 23.0 mph 34.5 mph 0.00 in Snow Light Snow
10:38 PM 33.8 °F 23.2 °F 30.2 °F 87% 29.73 in 1.8 mi North 17.3 mph 31.1 mph 0.00 in Snow Light Snow
10:53 PM 32.0 °F 20.1 °F 30.9 °F 96% 29.73 in 1.2 mi North 19.6 mph 27.6 mph 0.00 in Snow Light Snow
11:32 PM 33.8 °F 23.9 °F 30.2 °F 87% 29.72 in 1.0 mi North 15.0 mph 27.6 mph 0.00 in Snow Light Snow
11:48 PM 33.8 °F 22.8 °F 30.2 °F 87% 29.71 in 0.8 mi North 18.4 mph 28.8 mph 0.01 in Snow Light Snow
11:53 PM 32.0 °F 20.8 °F 30.9 °F 96% 29.72 in 0.8 mi North 17.3 mph 28.8 mph 0.01 in Snow Light Snow